Manchester, NH

9:09 AM EDT on September 19, 2017 (GMT -0400)
Manchester

Weather History for KMHT - October, 2012

Change the Weather History Date:

Monday, October 29, 2012

  Actual Average Record
Temperature  
Mean Temperature 56 °F 47 °F  
Max Temperature 62 °F 57 °F 80 °F (1989)
Min Temperature 50 °F 37 °F 23 °F (1976)
Degree Days  
Heating Degree Days 9 18  
Month to date heating degree days 407  
Since 1 July heating degree days 550  
Cooling Degree Days 0 0  
Month to date cooling degree days 0  
Year to date cooling degree days 638  
Growing Degree Days 6 (Base 50)    
Moisture  
Dew Point 54 °F    
Average Humidity 90    
Maximum Humidity 94    
Minimum Humidity 87    
Precipitation  
Precipitation 1.37 in 0.13 in 1.48 in (2003)
Month to date precipitation 3.94  
Year to date precipitation 37.01  
Snow  
Snow 0.00 in - - ()
Month to date snowfall  
Since 1 July snowfall  
Snow Depth -    
Sea Level Pressure  
Sea Level Pressure 29.49 in    
Wind  
Wind Speed 17 mph (ENE)    
Max Wind Speed 33 mph    
Max Gust Speed 50 mph    
Visibility 3 miles    
Events Rain    
T = Trace of Precipitation, MM = Missing Value Source: NWS Daily Summary

Daily Weather History Graph

Daily Weather History Graph

Search for Another Location

Airport or City:

Trip Planner

Search our weather history database for the weather conditions in past years. The results will help you decide how hot, cold, wet, or windy it might be!

Date:

Astronomy

Oct. 29, 2012 Rise Set
Actual Time 7:16 AM EDT 5:41 PM EDT
Civil Twilight 6:47 AM EDT 6:10 PM EDT
Nautical Twilight 6:14 AM EDT 6:43 PM EDT
Astronomical Twilight 5:41 AM EDT 7:16 PM EDT
Moon 5:30 PM EDT (10/29) 7:05 AM EDT (10/29)
Length of Visible Light 11h 23m
Length of Day
10h 24m
Full, 100% of the Moon is Illuminated
Oct 29
Full
Oct 29
Full
Nov 6
Last Quarter
Nov 13
New
Nov 20
First Quarter

Hourly Weather History & Observations

Time (EDT) Temp. Dew Point Humidity Pressure Visibility Wind Dir Wind Speed Gust Speed Precip Events Conditions
12:53 AM 50.0 °F 48.0 °F 93% 29.84 in 3.0 mi NNE 9.2 mph - 0.00 in   Light Drizzle
1:53 AM 50.0 °F 48.0 °F 93% 29.82 in 2.0 mi NNE 10.4 mph - 0.01 in Rain Light Rain
2:53 AM 50.0 °F 48.0 °F 93% 29.80 in 2.0 mi NNE 10.4 mph 21.9 mph 0.01 in   Light Drizzle
3:53 AM 51.1 °F 48.0 °F 89% 29.77 in 2.0 mi NNE 11.5 mph 19.6 mph 0.00 in   Light Drizzle
4:53 AM 51.1 °F 48.9 °F 92% 29.75 in 2.0 mi NE 16.1 mph 25.3 mph 0.01 in Rain Light Rain
5:53 AM 51.1 °F 48.9 °F 92% 29.73 in 2.0 mi NNE 12.7 mph 18.4 mph 0.01 in Rain Light Rain
6:00 AM 51.8 °F 48.2 °F 88% 29.68 in 3.0 mi NE 12.7 mph 20.7 mph 0.00 in   Overcast
6:53 AM 52.0 °F 48.9 °F 89% 29.71 in 4.0 mi NE 12.7 mph - 0.00 in Rain Light Rain
7:31 AM 51.8 °F 50.0 °F 94% 29.66 in 2.0 mi NNE 15.0 mph 23.0 mph 0.00 in Rain Light Rain
7:53 AM 52.0 °F 50.0 °F 93% 29.70 in 2.0 mi NE 15.0 mph 21.9 mph 0.00 in Rain Light Rain
8:53 AM 53.1 °F 51.1 °F 93% 29.69 in 2.0 mi NNE 10.4 mph - 0.03 in Rain Light Rain
9:17 AM 53.6 °F 51.8 °F 94% 29.63 in 2.0 mi NE 10.4 mph 24.2 mph 0.02 in Rain Light Rain
9:21 AM 53.6 °F 51.8 °F 94% 29.63 in 2.0 mi NE 13.8 mph 23.0 mph 0.02 in Rain Light Rain
9:53 AM 55.0 °F 52.0 °F 89% 29.65 in 2.0 mi NE 15.0 mph 23.0 mph 0.05 in Rain Light Rain
10:01 AM 55.4 °F 51.8 °F 88% 29.61 in 1.8 mi NE 15.0 mph 24.2 mph 0.00 in Rain Light Rain
10:24 AM 55.4 °F 51.8 °F 88% 29.59 in 2.0 mi NE 13.8 mph 33.4 mph 0.01 in Rain Light Rain
10:32 AM 55.4 °F 51.8 °F 88% 29.59 in 1.8 mi NE 18.4 mph 26.5 mph 0.02 in Rain Light Rain
10:53 AM 55.0 °F 53.1 °F 93% 29.62 in 1.2 mi NE 16.1 mph 27.6 mph 0.03 in Rain Light Rain
11:53 AM 55.9 °F 53.1 °F 90% 29.59 in 2.0 mi NE 17.3 mph 27.6 mph 0.02 in Rain Light Rain
12:13 PM 55.4 °F 53.6 °F 94% 29.54 in 1.8 mi ENE 20.7 mph 34.5 mph 0.01 in Rain Light Rain
12:37 PM 57.2 °F 53.6 °F 88% 29.52 in 1.5 mi NE 23.0 mph 33.4 mph 0.01 in Rain Light Rain
12:53 PM 57.0 °F 54.0 °F 89% 29.54 in 1.5 mi ENE 21.9 mph 34.5 mph 0.02 in Rain Light Rain
1:05 PM 57.2 °F 53.6 °F 88% 29.49 in 1.8 mi NE 21.9 mph 36.8 mph 0.01 in Rain Light Rain
1:12 PM 57.2 °F 53.6 °F 88% 29.48 in 2.0 mi NE 24.2 mph 39.1 mph 0.01 in Rain Light Rain
1:26 PM 57.2 °F 53.6 °F 88% 29.47 in 1.8 mi NE 18.4 mph 29.9 mph 0.01 in Rain Light Rain
1:53 PM 57.0 °F 54.0 °F 89% 29.49 in 1.8 mi NE 21.9 mph 34.5 mph 0.02 in Rain Light Rain
2:30 PM 57.2 °F 53.6 °F 88% 29.42 in 3.0 mi ENE 32.2 mph 41.4 mph 0.02 in Rain Light Rain
2:53 PM 57.0 °F 53.1 °F 87% 29.42 in 2.5 mi NE 28.8 mph 49.5 mph 0.03 in Rain Light Rain
3:53 PM 57.2 °F 53.6 °F 88% 29.34 in 1.8 mi ENE 26.5 mph 44.9 mph N/A Rain Rain
4:53 PM 57.0 °F 54.0 °F 89% 29.37 in 1.5 mi East 21.9 mph 38.0 mph 0.23 in Rain Light Rain
5:53 PM 57.9 °F 55.0 °F 90% 29.36 in 2.0 mi ENE 25.3 mph 39.1 mph 0.18 in Rain Heavy Rain
6:53 PM 61.0 °F 57.0 °F 87% 29.35 in 3.0 mi East 25.3 mph 49.5 mph 0.12 in Rain Light Rain
7:53 PM 61.0 °F 57.9 °F 90% 29.33 in 7.0 mi East 28.8 mph 41.4 mph 0.05 in Rain Light Rain
8:37 PM 60.8 °F 57.2 °F 88% 29.27 in 2.5 mi East 28.8 mph 41.4 mph 0.08 in Rain Light Rain
8:46 PM 60.8 °F 57.2 °F 88% 29.27 in 4.0 mi East 21.9 mph 36.8 mph 0.10 in Rain Rain
8:53 PM 61.0 °F 57.9 °F 90% 29.30 in 3.0 mi East 20.7 mph 42.6 mph 0.12 in Rain Heavy Rain
9:00 PM 60.8 °F 57.2 °F 88% 29.26 in 4.0 mi East 33.4 mph 47.2 mph 0.01 in Rain Light Rain
9:08 PM 60.8 °F 57.2 °F 88% 29.25 in 3.0 mi East 25.3 mph 47.2 mph 0.01 in Rain Light Rain
9:17 PM 60.8 °F 57.2 °F 88% 29.25 in 2.5 mi East 23.0 mph 38.0 mph 0.02 in Rain Light Rain
9:30 PM 60.8 °F 57.2 °F 88% 29.25 in 1.8 mi East 23.0 mph 40.3 mph 0.10 in Rain Heavy Rain
9:39 PM 60.8 °F 57.2 °F 88% 29.26 in 3.0 mi East 23.0 mph 40.3 mph 0.13 in Rain Rain
9:50 PM 60.8 °F 57.2 °F 88% 29.27 in 2.0 mi East 24.2 mph 38.0 mph 0.26 in Rain Heavy Rain
9:53 PM 61.0 °F 57.9 °F 90% 29.31 in 2.0 mi East 24.2 mph 38.0 mph 0.30 in Rain Heavy Rain
10:06 PM 60.8 °F 57.2 °F 88% 29.28 in 3.0 mi East 27.6 mph 43.7 mph 0.08 in Rain Rain
10:30 PM 62.6 °F 59.0 °F 88% 29.30 in 10.0 mi East 20.7 mph 38.0 mph 0.11 in Rain Light Rain
10:53 PM 61.0 °F 59.0 °F 93% 29.34 in 10.0 mi East 18.4 mph 33.4 mph 0.12 in   Overcast
11:12 PM 60.8 °F 59.0 °F 94% 29.30 in 9.0 mi East 17.3 mph 31.1 mph 0.01 in Rain Light Rain
11:53 PM 61.0 °F 59.0 °F 93% 29.35 in 6.0 mi East 13.8 mph 26.5 mph 0.01 in   Overcast